Kelowna, British Columbia

3:27 PM PDT on April 25, 2018 (GMT -0700)
Kelowna

Weather History for CYLW - February, 2014

Change the Weather History Date:

Sunday, February 9, 2014

  Actual Average Record
Temperature  
Mean Temperature 8 °F -  
Max Temperature 20 °F 40 °F 48 °F (1998)
Min Temperature -4 °F 23 °F -4 °F (2014)
Degree Days  
Heating Degree Days 57    
Moisture  
Dew Point 6 °F    
Average Humidity 80    
Maximum Humidity 92    
Minimum Humidity 64    
Precipitation  
Precipitation 0.00 in 0.03 in - ()
Sea Level Pressure  
Sea Level Pressure 30.27 in    
Wind  
Wind Speed 3 mph ()    
Max Wind Speed 6 mph    
Max Gust Speed 28 mph    
Visibility 8.9 miles    
Events Snow    
Averages and records for this station are not official NWS values.
T = Trace of Precipitation, MM = Missing Value Source: Averaged Metar Reports

Daily Weather History Graph

Daily Weather History Graph

Search for Another Location

Airport or City:

Astronomy

Feb. 09, 2014 Rise Set
Actual Time 7:18 AM PST 5:06 PM PST
Civil Twilight 6:44 AM PST 5:39 PM PST
Nautical Twilight 6:06 AM PST 6:18 PM PST
Astronomical Twilight 5:28 AM PST 6:55 PM PST
Moon 12:39 PM PST (2/9) 3:37 AM PST (2/9)
Length of Visible Light 10h 55m
Length of Day
9h 47m
Waxing Gibbous, 78% of the Moon is Illuminated
Feb 9
Waxing Gibbous
Feb 14
Full
Feb 22
Last Quarter
Mar 1
New
Mar 8
First Quarter

Hourly Weather History & Observations

Time (PST) Temp. Windchill Dew Point Humidity Pressure Visibility Wind Dir Wind Speed Gust Speed Precip Events Conditions
12:00 AM 1.4 °F -6.2 °F -0.4 °F 92% 30.23 in 9.0 mi North 3.5 mph - N/A   Partly Cloudy
1:00 AM -0.4 °F - -4.0 °F 85% 30.24 in 9.0 mi NNE 2.3 mph - N/A   Clear
2:00 AM -2.2 °F -10.4 °F -5.8 °F 85% 30.25 in 9.0 mi NNE 3.5 mph - N/A   Clear
3:00 AM -4.0 °F -12.4 °F -7.6 °F 85% 30.25 in 9.0 mi North 3.5 mph - N/A   Clear
4:00 AM -3 °F - -6 °F 80% 30.25 in 10 mi North 3.5 mph - -  
4:00 AM -2.2 °F -10.4 °F -5.8 °F 85% 30.25 in 9.0 mi North 3.5 mph - N/A   Clear
5:00 AM -0.4 °F - -4.0 °F 85% 30.26 in 9.0 mi Variable 2.3 mph - N/A   Overcast
6:00 AM 5.0 °F -2.1 °F 1.4 °F 85% 30.26 in 9.0 mi North 3.5 mph - N/A   Overcast
7:00 AM 6.8 °F - 3.2 °F 85% 30.26 in 9.0 mi Calm Calm - N/A   Overcast
7:05 AM 6.8 °F - 3.2 °F 85% 30.27 in 9.0 mi Variable 2.3 mph - N/A   Overcast
8:00 AM 8.6 °F 2.0 °F 5.0 °F 85% 30.27 in 9.0 mi NNE 3.5 mph - N/A   Overcast
8:01 AM 8.6 °F - 5.0 °F 85% 30.27 in 9.0 mi NNE 2.3 mph - N/A Snow Light Snow
8:10 AM 8.6 °F 0.1 °F 5.0 °F 85% 30.27 in 9.0 mi NNE 4.6 mph - N/A Snow Light Snow
8:14 AM 8.6 °F - 5.0 °F 85% 30.27 in 9.0 mi NNE 2.3 mph - N/A   Overcast
8:22 AM 8.6 °F 2.0 °F 5.0 °F 85% 30.27 in 9.0 mi NNE 3.5 mph - N/A   Overcast
8:52 AM 10.4 °F 2.2 °F 6.8 °F 85% 30.27 in 9.0 mi North 4.6 mph - N/A   Overcast
9:00 AM 10.4 °F 2.2 °F 6.8 °F 85% 30.27 in 9.0 mi North 4.6 mph - N/A   Mostly Cloudy
9:58 AM 12.2 °F 6.1 °F 6.8 °F 79% 30.29 in 9.0 mi North 3.5 mph 27.6 mph N/A Snow Light Snow
10:00 AM 13 °F - 7 °F 67% 30.29 in 10 mi North 3.5 mph - - Snow Light Snow
10:00 AM 12.2 °F - 6.8 °F 79% 30.29 in 9.0 mi Variable 2.3 mph - N/A Snow Light Snow
10:08 AM 12.2 °F - 6.8 °F 79% 30.29 in 4.0 mi NNW 2.3 mph - N/A Snow Light Snow
10:15 AM 12.2 °F - 6.8 °F 79% 30.29 in 6.0 mi Calm Calm - N/A Snow Light Snow
11:00 AM 14.0 °F - 8.6 °F 79% 30.29 in 9.0 mi Calm Calm - N/A Snow Light Snow
11:41 AM 15.8 °F - 10.4 °F 79% 30.29 in 9.0 mi Variable 2.3 mph - N/A   Mostly Cloudy
12:00 PM 15.8 °F - 10.4 °F 79% 30.27 in 9.0 mi Calm Calm - N/A   Mostly Cloudy
1:00 PM 17.6 °F 10.7 °F 8.6 °F 68% 30.26 in 9.0 mi SSE 4.6 mph - N/A   Clear
2:00 PM 19.4 °F 14.3 °F 10.4 °F 68% 30.25 in 9.0 mi SE 3.5 mph - N/A   Overcast
3:00 PM 19.4 °F - 10.4 °F 68% 30.26 in 9.0 mi Calm Calm - N/A   Mostly Cloudy
4:00 PM 20 °F - 13 °F 64% 30.26 in 10 mi North 5.8 mph - -   Overcast
4:00 PM 19.4 °F 12.8 °F 12.2 °F 74% 30.26 in 9.0 mi North 4.6 mph - N/A   Overcast
5:00 PM 19.4 °F 11.5 °F 12.2 °F 74% 30.26 in 9.0 mi North 5.8 mph - N/A   Overcast
6:00 PM 17.6 °F 10.7 °F 12.2 °F 79% 30.26 in 9.0 mi North 4.6 mph - N/A   Overcast
7:00 PM 19.4 °F 14.3 °F 12.2 °F 74% 30.26 in 9.0 mi North 3.5 mph - N/A   Overcast
8:00 PM 17.6 °F 12.3 °F 12.2 °F 79% 30.27 in 9.0 mi NE 3.5 mph - N/A   Overcast
9:00 PM 15.8 °F - 12.2 °F 86% 30.28 in 9.0 mi Calm Calm - N/A   Overcast
10:00 PM 16 °F - 12 °F 77% 30.29 in 10 mi North 3.5 mph - -   Overcast
10:00 PM 15.8 °F 8.6 °F 12.2 °F 86% 30.29 in 9.0 mi ENE 4.6 mph - N/A   Overcast
11:00 PM 15.8 °F - 12.2 °F 86% 30.29 in 9.0 mi Variable 2.3 mph - N/A   Overcast